Taunton, MA

11:42 PM EDT on July 21, 2017 (GMT -0400)
Taunton Municipal

Weather History for KTAN - September, 2013

Change the Weather History Date:

Tuesday, September 17, 2013

  Actual Average Record
Temperature  
Mean Temperature 49 °F -  
Max Temperature 62 °F 73 °F 89 °F (1991)
Min Temperature 37 °F 49 °F 31 °F (1948)
Degree Days  
Heating Degree Days 16    
Moisture  
Dew Point 37 °F    
Average Humidity 74    
Maximum Humidity 96    
Minimum Humidity 36    
Precipitation  
Precipitation 0.00 in - - ()
Sea Level Pressure  
Sea Level Pressure 30.34 in    
Wind  
Wind Speed 5 mph (NNW)    
Max Wind Speed 12 mph    
Max Gust Speed 21 mph    
Visibility 8 miles    
Events Fog    
Averages and records for this station are not official NWS values.
T = Trace of Precipitation, MM = Missing Value Source: NWS Daily Summary

Daily Weather History Graph

Daily Weather History Graph

Search for Another Location

Airport or City:

Trip Planner

Search our weather history database for the weather conditions in past years. The results will help you decide how hot, cold, wet, or windy it might be!

Date:

Astronomy

Sep. 17, 2013 Rise Set
Actual Time 6:26 AM EDT 6:49 PM EDT
Civil Twilight 5:58 AM EDT 7:17 PM EDT
Nautical Twilight 5:25 AM EDT 7:50 PM EDT
Astronomical Twilight 4:51 AM EDT 8:23 PM EDT
Moon 5:35 PM EDT (9/17) 4:16 AM EDT (9/17)
Length of Visible Light 13h 18m
Length of Day
12h 23m
Waxing Gibbous, 96% of the Moon is Illuminated
Sep 17
Waxing Gibbous
Sep 19
Full
Sep 26
Last Quarter
Oct 4
New
Oct 11
First Quarter

Hourly Weather History & Observations

Time (EDT) Temp. Windchill Dew Point Humidity Pressure Visibility Wind Dir Wind Speed Gust Speed Precip Events Conditions
12:52 AM 48.0 °F - 39.0 °F 71% 30.25 in 10.0 mi NNW 4.6 mph - N/A   Clear
1:52 AM 46.9 °F - 37.9 °F 71% 30.27 in 10.0 mi Variable 4.6 mph - N/A   Clear
2:52 AM 46.9 °F - 36.0 °F 66% 30.28 in 10.0 mi NNW 5.8 mph - N/A   Clear
3:52 AM 45.0 °F 42.6 °F 36.0 °F 71% 30.29 in 10.0 mi North 4.6 mph - N/A   Clear
4:52 AM 44.1 °F 41.5 °F 36.0 °F 73% 30.29 in 10.0 mi NNW 4.6 mph - N/A   Clear
5:52 AM 44.1 °F 40.1 °F 36.0 °F 73% 30.32 in 10.0 mi North 6.9 mph - N/A   Clear
6:52 AM 43.0 °F 41.3 °F 36.0 °F 76% 30.34 in 10.0 mi NW 3.5 mph - N/A   Clear
7:52 AM 45.0 °F 41.2 °F 37.0 °F 74% 30.37 in 10.0 mi NNW 6.9 mph - N/A   Mostly Cloudy
8:52 AM 52.0 °F - 39.0 °F 61% 30.38 in 10.0 mi North 8.1 mph - N/A   Clear
9:52 AM 55.0 °F - 39.9 °F 57% 30.40 in 10.0 mi North 8.1 mph - N/A   Partly Cloudy
10:52 AM 57.9 °F - 39.0 °F 49% 30.41 in 10.0 mi North 9.2 mph - N/A   Mostly Cloudy
11:52 AM 57.9 °F - 36.0 °F 44% 30.40 in 10.0 mi North 10.4 mph 20.7 mph N/A   Scattered Clouds
12:52 PM 60.1 °F - 37.9 °F 44% 30.40 in 10.0 mi North 9.2 mph - N/A   Clear
1:52 PM 60.1 °F - 35.1 °F 39% 30.38 in 10.0 mi North 11.5 mph 17.3 mph N/A   Clear
2:52 PM 61.0 °F - 36.0 °F 39% 30.37 in 10.0 mi NNE 9.2 mph - N/A   Clear
3:52 PM 61.0 °F - 34.0 °F 36% 30.35 in 10.0 mi North 11.5 mph - N/A   Clear
4:52 PM 60.1 °F - 34.0 °F 38% 30.35 in 10.0 mi Variable 6.9 mph - N/A   Clear
5:52 PM 60.1 °F - 37.0 °F 42% 30.33 in 10.0 mi NNE 3.5 mph - N/A   Clear
6:52 PM 46.9 °F - 43.0 °F 86% 30.33 in 10.0 mi SSW 3.5 mph - N/A   Clear
7:52 PM 43.0 °F 41.3 °F 39.9 °F 89% 30.34 in 10.0 mi SSW 3.5 mph - N/A   Clear
8:52 PM 41.0 °F - 39.0 °F 93% 30.34 in 10.0 mi Calm Calm - N/A   Clear
9:52 PM 39.9 °F - 37.9 °F 93% 30.34 in 10.0 mi Calm Calm - N/A   Clear
10:17 PM 39.9 °F - 37.9 °F 93% 30.34 in 1.2 mi Calm Calm - N/A   Clear
10:23 PM 39.0 °F - 37.9 °F 96% 30.34 in 0.5 mi Calm Calm - N/A Fog Fog
10:34 PM 39.0 °F - 37.0 °F 93% 30.34 in 1.2 mi Calm Calm - N/A   Partly Cloudy
10:36 PM 39.0 °F - 37.0 °F 93% 30.34 in 2.5 mi Calm Calm - N/A   Partly Cloudy
10:43 PM 39.0 °F - 37.0 °F 93% 30.34 in 3.0 mi Calm Calm - N/A   Partly Cloudy
10:52 PM 39.0 °F - 37.0 °F 93% 30.35 in 10.0 mi Calm Calm - N/A   Clear
11:19 PM 37.9 °F - 36.0 °F 93% 30.34 in 1.8 mi Calm Calm - N/A   Clear
11:32 PM 37.9 °F - 36.0 °F 93% 30.34 in 2.0 mi Calm Calm - N/A   Clear
11:42 PM 37.9 °F - 36.0 °F 93% 30.34 in 9.0 mi Calm Calm - N/A   Clear
11:52 PM 37.0 °F - 36.0 °F 96% 30.34 in 10.0 mi Calm Calm - N/A   Clear
11:57 PM 37.9 °F - 36.0 °F 93% 30.34 in 1.5 mi Calm Calm - N/A   Partly Cloudy
11:59 PM 37.9 °F - 36.0 °F 93% 30.33 in 0.8 mi Calm Calm - N/A   Mist